Other Surface Observations
Issued by NWS Tucson, AZ

Current Version | Previous Version | Text Only | Print | Product List | Glossary On
Versions: 1 2 3 4 5 6 7 8 9 10 11 12 13 14 15 16 17 18 19 20 21 22 23 24 25 26 27 28 29 30 31 32 33 34 35 36 37 38 39 40 41 42 43 44 45 46 47 48 49 50
000
SXUS55 KTWC 310615
OSOTWC

WEATHER ROUNDUP FOR SOUTHEAST ARIZONA
NATIONAL WEATHER SERVICE TUCSON AZ
1115 PM MST THU OCT 30 2014

AZZ504>506-514-310715-
LOCATION       SKY/WX    TMP DP  RH WIND       PRES   REMARKS
TUCSON         CLEAR     70  42  36 S8        30.05R
DAVIS-MONTHAN  PTCLDY    69  41  35 S8        30.03S
CHILDRENS PARK N/A       69  38  32 NE3               PIMA CO DEQ
ALVERNON/22ND  N/A      N/A N/A N/A N/A               PIMA CO DEQ
CHERRY/GLENN   N/A      N/A N/A N/A N/A               PIMA CO DEQ
TANGERINE      N/A       65 N/A N/A NE5               PIMA CO DEQ
CONTL RANCH    N/A       73  39  29 E1                PIMA CO DEQ
GRANT/1ST      N/A       74  39  28 E1                PIMA CO DEQ
CRAYCROFT/22ND N/A      N/A N/A N/A N/A               PIMA CO DEQ
GOLFLINKS/KOLB N/A       77  36  23 S4                PIMA CO DEQ
AJO/12TH       N/A       72  40  31 S7                PIMA CO DEQ
SAGUARO EAST   N/A      N/A N/A N/A N/A               PIMA CO DEQ
FAIRGROUNDS    N/A       77 N/A N/A SE10              PIMA CO DEQ
SAGUARO        N/A       71  34  26 N3                *SABINO CYN
SAN CARLOS     N/A       62  35  37 NW3               *SAN CARLOS
GREEN VALLEY   N/A       70  40  34 SW6               PIMA CO DEQ
HORSE CAMP CYN N/A       69  30  23 E13G16            *ARAVAIPA CYN
RINCON MTNS    N/A       55  33  43 E6G16             *NR MANNING CAMP
$$

AZZ509>511-310715-
LOCATION       SKY/WX    TMP DP  RH WIND       PRES   REMARKS
SAFFORD        CLEAR     67  32  27 E9        30.10S
STRAY HORSE    N/A       52  28  40 NE2               *
TRAIL CABIN    N/A       54  30  39 CALM              *N OF GRANVILLE
BLACK HILLS    N/A       72  29  20 SE8G13            *N OF FT THOMAS
DRY LAKE       N/A       57  27  31 SE11G20           *NATANES MTNS
NOON CREEK     N/A       63  33  33 SW6               *PINALENO MTNS
COLUMBINE      N/A       46  28  49 SE4G11            *PINALENO MTNS
GUTHRIE        N/A       60  25  26 E7G13             *SW OF GUTHRIE
$$

AZZ502-503-513-310715-
LOCATION       SKY/WX    TMP DP  RH WIND       PRES   REMARKS
NOGALES        CLEAR     61  42  49 NE3       30.11S
SELLS          N/A       65  46  50 NE4               *
SASABE         N/A       59  45  59 SW7G10            *ALTAR VLY
HOPKINS        N/A       60  35  39 E3                *SANTA RITA MTNS
CARR CYN       N/A       65  36  34 SW5G11            *W OF HEREFORD
$$

AZZ507-508-512-310715-
LOCATION       SKY/WX    TMP DP  RH WIND       PRES   REMARKS
SIERRA VISTA   PTCLDY    64  37  36 S6        30.17S
DOUGLAS        CLEAR     67  38  34 E10       30.14S
EMPIRE MTNS    N/A       52  36  54 W5                *LAS CIENEGAS NCA
MULESHOE RANCH N/A       71  32  24 E7G12             *PRESERVE
HEADQUARTERS   N/A       66  36  33 NE7G12            *CHIRICAHUA MTNS
$$

.............................NOTES.............................
THIS IS AN AUTOMATED COLLECTIVE WITH MINIMAL QUALITY CONTROL.
PIMA CO DEQ SITES HAVE NONSTANDARD WIND SENSOR HEIGHTS.
PIMA CO DEQ SITES DO NOT REPORT WIND GUSTS.
* INDICATES WIND SENSORS LOCATED AT 20 FEET INSTEAD OF 33 FEET.
..............................KEY..............................
SKY/WX - SKY CONDITION/WEATHER
TMP    - TEMPERATURE IN FAHRENHEIT
DP     - DEWPOINT IN FAHRENHEIT
RH     - RELATIVE HUMIDITY IN PERCENT
WIND   - DIRECTION AND SPEED IN MILES PER HOUR (MPH)
VRB    - VARIABLE WIND DIRECTION
PRES   - MEAN SEA LEVEL PRESSURE IN INCHES OF MERCURY
         F - FALLING PRESSURE   R - RISING PRESSURE
         S - STEADY PRESSURE
VSB    - VISIBILITY IN MILES
HX     - HEAT INDEX IN FAHRENHEIT
WCI    - WIND CHILL INDEX IN FAHRENHEIT
N/A    - NOT AVAILABLE
AFB    - AIR FORCE BASE
         DAVIS-MONTHAN IS DAVIS-MONTHAN AIR FORCE BASE
CYN    - CANYON
MTNS   - MOUNTAINS
NCA    - NATIONAL CONSERVATION AREA
NR     - NEAR
VLY    - VALLEY
CONTL  - CONTINENTAL
PIMA CO DEQ - PIMA COUNTY DEPT OF ENVIRONMENTAL QUALITY



USA.gov is the U.S. government's official web portal to all federal, state and local government web resources and services.